Cloud_Cover
0 5 2 5 2 5 72 96 100 91 100 100 28 76 53 91 38 1 31 100 100 100 100 100 100 100 100 100 100 100 99 100 100 100 100 99 100 99 100 100 100 100 100 100
1 5 5 5 4 5 21 33 83 100 58 100 100 100 100 100 100 58 5 99 100 100 100 100 100 100 100 100 100 100 100 100 100 100 100 92 100 100 100 100 100 100 100 100
0 5 5 5 5 5 5 5 5 17 100 100 100 100 98 78 100 100 5 61 100 100 100 100 100 100 100 100 100 100 100 100 100 100 100 100 92 100 100 100 100 100 100 100
0 41 5 5 5 5 5 5 5 5 62 100 100 100 100 100 100 100 97 2 20 72 100 100 100 100 100 100 100 100 100 100 100 100 100 100 100 100 100 100 100 100 100 100
4 28 5 68 5 5 5 11 44 35 5 6 100 100 100 100 100 100 100 5 3 8 100 100 99 100 100 100 100 100 100 100 100 100 100 100 100 100 100 100 100 100 100 100
5 26 5 10 5 5 5 40 76 100 93 100 100 100 100 100 100 100 100 95 5 4 64 100 99 100 100 100 100 100 100 100 100 100 100 100 100 100 100 100 100 100 100 100
7 5 19 22 63 26 6 8 6 31 100 100 100 100 100 100 100 100 100 100 53 5 4 69 100 100 100 100 100 100 100 100 100 100 100 100 100 100 100 100 100 100 100 100
100 98 59 98 21 88 73 100 98 54 91 100 100 100 100 100 100 100 100 100 100 6 2 65 74 100 100 100 100 100 100 100 100 100 100 100 100 100 100 100 100 100 100 100
100 100 100 100 100 90 6 88 100 100 99 100 100 100 100 100 100 100 100 100 100 100 8 6 48 87 100 100 84 99 100 100 100 100 100 100 100 100 100 100 100 100 100 100
100 100 63 97 100 7 5 15 88 100 95 68 100 100 100 100 100 100 100 100 100 100 100 79 5 46 78 99 100 86 59 99 100 99 100 100 100 100 100 100 100 100 100 100
95 84 26 5 44 26 5 5 35 74 100 98 99 100 100 100 100 100 100 100 100 100 100 100 100 27 52 100 100 100 100 99 52 100 100 100 100 100 100 100 100 100 100 100
52 7 60 5 32 71 5 5 14 92 80 100 100 98 100 100 100 100 100 100 100 100 100 100 100 100 74 80 82 100 100 100 100 100 69 6 4 62 100 100 100 100 100 100
22 6 5 5 5 8 5 10 93 92 86 94 100 100 100 100 100 100 100 100 100 100 100 100 100 100 100 86 90 94 100 100 100 100 100 86 73 100 100 100 100 100 100 100
88 33 78 14 30 5 5 5 17 98 44 76 89 97 100 100 100 100 100 100 99 100 100 100 100 100 100 100 100 97 100 100 100 100 100 100 100 100 100 65 92 100 100 100
17 7 31 81 9 82 43 5 5 5 5 74 100 95 96 100 100 100 100 100 100 100 100 100 100 100 99 75 100 100 100 81 81 98 100 100 100 100 100 100 100 97 100 100
63 63 14 100 70 91 96 5 5 5 4 5 88 100 92 98 100 100 100 100 100 100 100 100 100 74 51 60 95 99 82 5 5 30 56 99 100 100 100 100 99 98 73 100
100 100 100 100 18 98 95 5 5 4 0 2 24 100 8 5 93 100 100 100 100 100 100 100 100 100 42 17 14 69 84 82 12 5 5 5 23 53 98 100 99 98 99 92
100 100 100 100 100 100 11 5 0 4 5 5 5 89 73 25 100 100 100 100 100 100 100 100 100 100 97 85 58 58 11 5 5 6 5 5 5 5 5 5 59 76 14 5
100 100 100 100 72 5 90 3 4 3 3 5 5 5 14 5 6 87 100 100 100 100 100 100 100 100 100 43 25 5 5 1 1 1 0 0 0 1 5 1 4 5 5 5
100 100 100 100 96 39 6 5 6 5 77 6 19 50 5 5 5 48 24 48 42 72 98 99 98 97 85 9 5 5 5 5 4 0 0 0 0 0 0 0 0 5 5 5
100 100 100 100 100 76 100 86 83 94 98 100 100 100 100 11 68 33 26 21 72 98 88 50 5 6 5 5 5 5 5 5 4 5 2 1 0 0 0 0 1 5 5 5
100 100 100 100 100 82 100 100 98 100 100 100 100 100 100 100 100 83 84 99 92 83 82 78 65 22 5 5 5 5 3 0 3 1 0 0 0 0 0 3 5 5 5 8
100 100 100 100 100 100 100 100 100 100 100 100 100 100 100 100 100 99 100 100 98 91 82 80 68 15 5 29 7 6 5 5 5 5 5 0 0 1 5 5 5 5 22 97
100 100 100 100 100 100 100 100 100 100 100 100 100 100 100 100 100 100 100 100 92 100 70 36 10 77 57 31 7 5 5 4 0 0 1 4 5 5 5 6 5 93 100 100
100 100 100 100 100 100 100 100 100 100 100 100 100 100 100 100 100 100 100 100 89 84 46 53 100 88 25 5 5 5 3 0 4 5 5 5 5 8 50 69 75 99 100 100
100 100 100 100 100 100 100 100 100 100 100 100 100 100 100 100 100 100 100 98 89 71 93 76 51 5 10 7 4 0 0 1 5 6 31 17 69 61 93 95 85 5 62 98